HTDA

Julius Nyerere International Airport

Airport
ICAO code
HTDA
IATA Code
DAR
Summary
ICAO Region
AFI
ICAO Territory
Location

Dar es Salaam, Dar es Salaam Region

Serving
Dar es Salaam
Elevation
196 ft
Coordinates
6° 52' 21" S , 39° 12' 25" E
KCC
Metar
Observation
HTDA 260900Z 06008KT 9999 -SHRA FEW024 SCT027 28/20 Q1018 NOSIG
Station
Dar Es Salaam Airport
Date/Time
2022-09-26 09:00:00
Wind direction
60°
Wind speed
08 kts
Lowest cloud amount
few clouds
Temperature
28°C
Dew point
20°C
Humidity
61%
QNH
1018 hPa
Weather condition
light showers rain

Julius Nyerere International Airport is the international airport of Dar es Salaam, the largest city in Tanzania. It is located about 12 km southwest of the city centre.

Climatology

Tropical Savanna climate (Köppen climate classification Aw)

Runways

Designator Length Width Surface Rops
14/32 1000 30 ASP Yes/Yes
5/23 3000 46 ASP Yes/Yes

Airport map

Aerial View

SKYbrary Partners:

Safety knowledge contributed by: